Regional Weather Roundup
Issued by NWS

Home | Current Version | Previous Version | Text Only | Print | Product List | Glossary On
Versions: 1 2 3 4 5 6 7 8 9 10 11 12 13 14 15 16 17 18 19 20 21 22 23 24 25 26 27 28 29 30 31 32 33 34 35 36 37 38 39 40 41 42 43 44 45 46 47 48 49 50
000
ASUS43 KTOP 261308
RWRKS

WEATHER ROUNDUP FOR KANSAS
NATIONAL WEATHER SERVICE GOODLAND KS
800 AM CDT MON JUN 26 2017

NOTE:  "FAIR" INDICATES FEW OR NO CLOUDS BELOW 12,000 FEET WITH NO
SIGNIFICANT WEATHER AND/OR OBSTRUCTIONS TO VISIBILITY.

KSZ001>006-013>018-027>032-041>047-261400-
NORTHWEST KANSAS

CITY           SKY/WX    TMP DP  RH WIND       PRES   REMARKS
GOODLAND       SUNNY     60  57  89 SW9       30.24S
HAYS           SUNNY     62  57  83 S7        30.23S
HILL CITY      PTSUNNY   61  58  90 SW7       30.24R
RUSSELL        SUNNY     62  57  83 S7        30.21S
$$

KSZ061>065-074>080-084>089-261400-
SOUTHWEST KANSAS

CITY           SKY/WX    TMP DP  RH WIND       PRES   REMARKS
DODGE CITY     SUNNY     58  57  97 SE5       30.23S FOG
ELKHART          N/A     60  50  69 W6          N/A
GARDEN CITY    FOG       58  58 100 SE3       30.24S VSB<1/4
GREAT BEND     MOSUNNY   63  57  81 SE9       30.22F
LIBERAL        CLOUDY    61  60  97 SE3       30.24S FOG
PRATT          CLOUDY    61  51  70 E6        30.23S
$$

KSZ066>073-081>083-090>101-261400-
SOUTHEAST KANSAS

CITY           SKY/WX    TMP DP  RH WIND       PRES   REMARKS
CHANUTE          N/A    N/A N/A N/A MISG      30.21F
COFFEYVILLE    CLOUDY    68  55  63 E6        30.21R
HUTCHINSON     MOSUNNY   63  55  75 SE8       30.21F
MEDICINE LODGE   N/A     64  54  69 E3        30.22R
NEWTON         CLOUDY    63  54  72 SE7       30.23F
PARSONS        CLOUDY    66  58  75 N3        30.24R
WICHITA INTL   PTSUNNY   66  55  67 E7        30.22R
WICHITA JABRA  CLOUDY    64  56  75 E5        30.22R
WICHITA MCCONL MOSUNNY   65  53  65 SE5       30.22R
WINFIELD       CLOUDY    66  55  67 E8        30.22S
$$

KSZ007>012-019>026-033>040-048>060-102>105-261400-
NORTHEAST KANSAS

CITY           SKY/WX    TMP DP  RH WIND       PRES   REMARKS
CONCORDIA      MOSUNNY   60  55  83 NW5       30.21S
EMPORIA        CLOUDY    66  58  75 S12       30.20S
LAWRENCE       SUNNY     59  58  96 CALM      30.20S
MANHATTAN      MOSUNNY   60  57  89 CALM      30.20S
MARYSVILLE     CLOUDY    59  55  88 N6        30.21R
OLATHE IND     SUNNY     60  56  86 S6        30.21S
OLATHE EXE     SUNNY     60  57  89 S5        30.21R
SALINA         MOSUNNY   67  59  75 CALM      30.21R
TOPEKA BILLARD MOSUNNY   63  59  87 CALM      30.19F
TOPEKA FORBES  MOSUNNY   63  59  87 S6        30.19F
$$



USA.gov is the U.S. government's official web portal to all federal, state and local government web resources and services.